Eagle, AK

2:44 PM AKST on February 09, 2016 (GMT -0900)
Eagle

Weather History for PAEG - October, 2013

Change the Weather History Date:

Thursday, October 3, 2013

  Actual Average (PABN) Record (PABN)
Temperature  
Mean Temperature 38 °F -  
Max Temperature 52 °F 34 °F 50 °F (2003)
Min Temperature 23 °F 23 °F 3 °F (2000)
Degree Days  
Heating Degree Days 28    
Moisture  
Dew Point 28 °F    
Average Humidity 76    
Maximum Humidity 96    
Minimum Humidity 45    
Precipitation  
Precipitation 0.00 in - - ()
Sea Level Pressure  
Sea Level Pressure 29.82 in    
Wind  
Wind Speed 1 mph (ESE)    
Max Wind Speed 7 mph    
Max Gust Speed 17 mph    
Visibility 10 miles    
Events      
Averages and records for this station are not official NWS values.
T = Trace of Precipitation, MM = Missing Value Source: NWS Daily Summary

Daily Weather History Graph

Daily Weather History Graph

Search for Another Location

Airport or City:

Trip Planner

Search our weather history database for the weather conditions in past years. The results will help you decide how hot, cold, wet, or windy it might be!

Date:

Astronomy

Oct. 03, 2013 Rise Set
Actual Time 7:41 AM AKDT 6:43 PM AKDT
Civil Twilight 6:52 AM AKDT 7:32 PM AKDT
Nautical Twilight 5:55 AM AKDT 8:29 PM AKDT
Astronomical Twilight 4:53 AM AKDT 9:30 PM AKDT
Moon 6:08 AM AKDT (10/3) 6:01 PM AKDT (10/3)
Length of Visible Light 12h 39m
Length of Day
11h 02m
Waning Crescent, 2% of the Moon is Illuminated
Oct 3
Waning Crescent
Oct 4
New
Oct 11
First Quarter
Oct 18
Full
Oct 26
Last Quarter

Hourly Weather History & Observations

Time (AKDT) Temp. Dew Point Humidity Pressure Visibility Wind Dir Wind Speed Gust Speed Precip Events Conditions
12:53 AM 28.0 °F 26.1 °F 92% 29.94 in 10.0 mi Calm Calm - N/A   Clear
1:53 AM 26.1 °F 25.0 °F 96% 29.95 in 10.0 mi Calm Calm - N/A   Clear
2:53 AM 25.0 °F 23.0 °F 92% 29.94 in 10.0 mi Calm Calm - N/A   Clear
3:53 AM 24.1 °F 21.9 °F 91% 29.93 in 10.0 mi Calm Calm - N/A   Clear
4:16 AM 24.8 °F 21.2 °F 86% 29.89 in 10.0 mi Calm Calm - N/A   Partly Cloudy
4:53 AM 23.0 °F 21.0 °F 92% 29.92 in 10.0 mi Calm Calm - N/A   Clear
5:08 AM 24.8 °F 21.2 °F 86% 29.89 in 10.0 mi Calm Calm - N/A   Scattered Clouds
5:53 AM 27.0 °F 25.0 °F 92% 29.91 in 10.0 mi Calm Calm - N/A   Overcast
6:35 AM 28.4 °F 26.6 °F 93% 29.87 in 10.0 mi Calm Calm - N/A   Overcast
6:53 AM 28.9 °F 27.0 °F 92% 29.90 in 10.0 mi Calm Calm - N/A   Overcast
7:53 AM 28.9 °F 27.0 °F 92% 29.89 in 10.0 mi Calm Calm - N/A   Overcast
8:53 AM 32.0 °F 30.9 °F 96% 29.89 in 10.0 mi Calm Calm - N/A   Overcast
9:53 AM 37.9 °F 35.1 °F 89% 29.87 in 10.0 mi Calm Calm - N/A   Scattered Clouds
10:53 AM 45.0 °F 36.0 °F 71% 29.86 in 10.0 mi Calm Calm - N/A   Clear
11:53 AM 50.0 °F 33.1 °F 52% 29.84 in 10.0 mi ESE 6.9 mph - N/A   Partly Cloudy
12:53 PM 51.1 °F 32.0 °F 48% 29.81 in 10.0 mi Variable 5.8 mph 17.3 mph N/A   Clear
1:53 PM 52.0 °F 30.9 °F 45% 29.80 in 10.0 mi Variable 4.6 mph - N/A   Scattered Clouds
2:53 PM 51.1 °F 30.9 °F 46% 29.78 in 10.0 mi Variable 6.9 mph - N/A   Overcast
3:53 PM 50.0 °F 30.0 °F 46% 29.75 in 10.0 mi Variable 3.5 mph - N/A   Overcast
4:53 PM 50.0 °F 30.9 °F 48% 29.73 in 10.0 mi Calm Calm - N/A   Overcast
5:53 PM 48.9 °F 30.9 °F 50% 29.71 in 10.0 mi Calm Calm - N/A   Mostly Cloudy
6:53 PM 41.0 °F 30.9 °F 67% 29.70 in 10.0 mi Calm Calm - N/A   Partly Cloudy
8:53 PM 33.1 °F 27.0 °F 78% 29.69 in 10.0 mi Calm Calm - N/A   Overcast
9:53 PM 33.1 °F 28.0 °F 82% 29.67 in 10.0 mi Calm Calm - N/A   Mostly Cloudy
10:53 PM 34.0 °F 28.9 °F 82% 29.66 in 10.0 mi Calm Calm - N/A   Overcast
11:53 PM 33.1 °F 28.9 °F 85% 29.65 in 10.0 mi Calm Calm - N/A   Overcast